alt.binaries.pictures.erotic.senior-citizens Group List
Num Subject Author Time
338 She's just started in 18 - '1' of '100' 284-files 53MB "She.nzb" merrow 2016/10/01 10:18
337 where her mum looked?! 1.jpg 172873 278-files 66MB "where.nzb" chaosdefined 2016/09/23 18:38
336 Young pre teens - '1' of '100' 100-files 30MB "Young.nzb" ct_web 2016/09/23 05:39
335 Tiny Sweet nice girls! 0.jpg 114306 104-files 17MB "Tiny.nzb" ct_web 2016/09/21 21:41
334 This sweety comes from heaven!!! 001.jpg 214581 27-files 6MB "This.nzb" irosen 2016/09/05 04:34
333 Sweet Young Girls 1.jpg 162561 306-files 72MB "Sweet.nzb" ofi8ab 2016/09/04 23:02
332 Look this___Adina 1.jpg 145922 212-files 39MB "Look.nzb" aacevedopr 2016/09/03 12:51
331 I love to cheat on my husband!!! 001.jpg 183701 35-files 16MB "love.nzb" merrow 2016/09/02 06:04
330 More exclusive models - '1' of '73' 73-files 21MB "More.nzb" sefatk 2016/09/01 06:59
329 Pretty nice little ladies ;))) 001.jpg 80219 21-files 4MB "Pretty.nzb" t.e.dalton 2016/08/31 02:40
328 There is also a great cumshot of the gooey stuff dripping from her snatch. - '1' of '65' 65-files 16MB "There.nzb" policecars4u 2016/08/30 09:47
327 Heres free young girl 2.jpg 137107 1-file 190KB "Heres.nzb" aacevedopr 2016/08/22 13:39
326 Heres free young girl 1.jpg 130082 2-files 370KB "Heres.nzb" aacevedopr 2016/08/22 13:39
325 Little tiny sweeties 6.jpg 213667 1-file 295KB "Little.nzb" aacevedopr 2016/08/22 14:13
324 Little tiny sweeties 1.jpg 207880 6-files 2MB "Little.nzb" aacevedopr 2016/08/22 14:13
322 See cutie play with Herself 2.jpg 191815 251-files 45MB "See.nzb" twood 2016/08/20 13:26
321 you like to look it? So look!:) 002.jpg 102904 60-files 9MB "you.nzb" t.e.dalton 2016/08/18 23:52
320 find more at... 0.jpg 114306 104-files 17MB "find.nzb" ofi8ab 2016/08/17 04:50
319 You Like to Look it? So Look!:) 001.jpg 160025 148-files 29MB "You.nzb" Puptrck150 2016/08/15 20:27
318 Unique serie - just downloaded 12.jpg 199557 306-files 72MB "Unique.nzb" twood 2016/08/15 03:16
317 my cool collection supervery young girls 1.jpg 145922 212-files 39MB "cool.nzb" k2mister 2016/08/14 10:30
316 Little tiny pussies banged!!! 001.jpg 130771 42-files 13MB "Little.nzb" savage_Ira 2016/08/13 23:03
315 C.mon, tiny, light my fire!!! 002.jpg 181818 84-files 21MB "C.mon.nzb" Puptrck150 2016/08/13 05:30
314 She screams and moans as she's getting slam fucked doggie style - '5' of '100' 100-files 26MB "She.nzb" jbarlow58 2016/08/13 00:54
313 Pretty nice little ladies 1.jpg 105822 44-files 7MB "Pretty.nzb" gscxray 2016/08/12 16:25
312 Young tight girl... 0.jpg 154644 65-files 13MB "Young.nzb" k2mister 2016/08/12 01:15
311 unless she is not fine? - '1' of '65' 65-files 18MB "unless.nzb" k2mister 2016/08/11 04:31
310 Tiny Sweet nice girls! 3.jpg 134396 147-files 27MB "Tiny.nzb" Kla.Win 2016/08/10 16:31
309 Very nice___Sissie 1.jpg 144843 148-files 28MB "Very.nzb" sefatk 2016/08/10 00:53
308 Tiny Sweet teens archive... - '29' of '100' 100-files 27MB "Tiny.nzb" bert.dewey 2016/08/09 04:03
307 My sister & her ... - '25' of '84' 84-files 21MB "sister.nzb" ofi8ab 2016/08/08 03:03
306 Why are they such Young and attractive? - '10' of '74' 74-files 23MB "Why.nzb" match.2 2016/08/07 23:41
305 sexy young pussy__Cindy 1.jpg 120969 390-files 64MB "sexy.nzb" FreezerNut 2016/08/07 23:19
304 Tiny Sweet teens archive... - '5' of '112' 112-files 21MB "Tiny.nzb" Puptrck150 2016/08/06 08:58
303 Want to see more? 1.jpg 210959 364-files 88MB "Want.nzb" lefortpaul 2016/07/17 14:06
302 The Best teens 1.jpg 146082 212-files 39MB "The.nzb" ct_web 2016/07/16 14:07
301 Why are they such Young and attractive? - '1' of '66' 4-files 1MB "Why.nzb" bert.dewey 2016/07/14 23:07
300 Girls get crazy 1.jpg 94769 351-files 68MB "Girls.nzb" roquedan 2016/07/12 14:10
299 See cutie play with Herself 1.jpg 102930 373-files 69MB "See.nzb" jbarlow58 2016/07/10 04:17
298 The cutie Little Teen in the... 0.jpg 98793 156-files 29MB "The.nzb" darkluparim 2016/07/09 01:48
297 >>> Fantasy Fest Pictures 001.jpg 130370 37-files 6MB "Fantasy.nzb" savage_Ira 2016/07/07 18:32
296 Schoolgirls___Candy 0.jpg 119217 163-files 28MB "Schoolgirls_.nzb" josebatalla 2016/07/07 04:50
295 want harder fuck pics&video? - '34' of '80' 80-files 22MB "want.nzb" seven779 2016/07/06 18:15
294 Her virginity is still whole?... And for a long time? 0.jpg 184437 196-files 35MB "Her.nzb" bert.dewey 2016/07/05 12:11
293 sexy little nymph - '27' of '80' 80-files 25MB "sexy.nzb" gscxray 2016/07/05 01:29
292 tit sex with hot amateur girl - '2' of '78' 78-files 11MB "tit.nzb" t.e.dalton 2016/07/04 20:34
291 Found a Hot Spot 0.jpg 194576 104-files 24MB "Found.nzb" dalad 2016/07/04 17:37
290 Little Cathy so temptin... 0.jpg 179231 352-files 79MB "Little.nzb" dazcaff 2016/07/01 23:36
289 Sweet Fest Pictures - '3' of '80' 80-files 25MB "Sweet.nzb" ghunt8153 2016/07/01 23:03
288 Total Ass Destruction 0.jpg 166948 61-files 12MB "Total.nzb" lemessag 2016/06/30 11:49
287 she's is the hottest teen around billie 001.jpg 180113 29-files 6MB "she.nzb" wpickel 2016/06/30 10:32
286 Tiny Sweet hot amateur girl 0.jpg 138175 224-files 44MB "Tiny.nzb" acyalum87 2016/06/28 21:43
285 tit sex with hot amateur girl - '5' of '21' 21-files 5MB "tit.nzb" irosen 2016/06/27 18:59
284 Lilly sets 0.jpg 89304 231-files 38MB "Lilly.nzb" lemessag 2016/06/24 23:04
283 Young erotic Models 002.jpg 167908 21-files 5MB "Young.nzb" lemessag 2016/06/23 06:11
282 The only Real Teen Orgy 001.jpg 110973 60-files 9MB "The.nzb" small.anya 2016/06/22 09:52
281 You Like to Look it? So Look - '1' of '112' 112-files 21MB "You.nzb" small.anya 2016/06/20 11:41
280 Young private... 001.jpg 130771 42-files 13MB "Young.nzb" savage.Ira 2016/06/17 20:56
279 without shame and conscience 001.jpg 207761 84-files 21MB "without.nzb" savage.Ira 2016/03/01 06:48
278 Glamour mature moms doing handjob ; oldmum_hhandjob.mp4 1-file 25MB "oldmum_hhandjob.mp4.nzb" deil 2016/02/25 12:53
277 Glamour mature moms doing handjob ; mat_bitch_glam!.mp4 1-file 26MB "mat_bitch_glam!.mp4.nzb" deil 2016/02/25 12:46
276 The cutiest Lil Teen Sluts in the... 001.jpg 185101 142-files 28MB "The.nzb" savage.Ira 2016/02/15 10:07
275 Erotic Teen Sluts - '1' of '21' 21-files 5MB "Erotic.nzb" dalad 2016/02/07 15:28
274 I Really Love To Fuck Her Old Hairy Pussy - ob-vlasta-05.jpg (90k) 20 files 3 MB "Really.nzb" Alicia 2011/09/04 11:24
273 Watch Me Cumming On Older Moms Tits - ob-yulia-01.jpg (103k) 20 files 3 MB "Watch.nzb" Alicia 2011/08/22 11:23
272 Mature Lady Plays Lesbians With Teen Girl - ob-inga-01.jpg (63k) 20 files 2 MB "Mature.nzb" Alicia 2011/08/30 11:23
271 Horny Older Mom Is Begging For His Cum - ob-jitka-01.jpg (80k) 20 files 2 MB "Horny.nzb" Alicia 2011/09/01 11:23
270 Boy Working Hard On His Older Aunts Pussy - ob-ruby-01.jpg (89k) 20 files 2 MB "Boy.nzb" Alicia 2011/08/28 11:23
269 Slutty Granny Fucked By 2 Young Studs - ob-yolanda-01.jpg (72k) 15 files 2 MB "Slutty.nzb" Alicia 2011/08/11 01:00
268 Lovely Older Mom Riding On a Dick - ob-renata-01.jpg (125k) 40 files 5 MB "Lovely.nzb" Alicia 2011/08/15 01:01
267 Fucking An Older Lady With Hairy Pussy - ob-linda-01.jpg (76k) 20 files 2 MB "Fucking.nzb" Alicia 2011/08/19 01:01
266 Playful Granny Loves When I Fuck Her - ob-verona-01.jpg (86k) 16 files 2 MB "Playful.nzb" Alicia 2011/08/09 01:00
265 Older Mommy Have Fun With Younger Girl - ob-celia-02.jpg (51k) 60 files 7 MB "Older.nzb" Alicia 2011/08/13 01:01
264 Granny Spreading Legs For Young Neighbor - ob-paula-01.jpg (88k) 20 files 3 MB "Granny.nzb" Alicia 2011/07/24 23:16
263 Drunk Older Lady Sucking Some Young Dick - ob-karen-01.jpg (111k) 40 files 6 MB "Drunk.nzb" Alicia 2011/07/22 18:40
262 Homemade Pics Of Mom And Her Young Boy - ob-volace-01.jpg (89k) 20 files 2 MB "Homemade.nzb" Alicia 2011/07/26 23:16
261 Big Busty Mom Cant Get Enough Of His Dick - ob-una-01.jpg (114k) 20 files 3 MB "Big.nzb" Alicia 2011/07/13 00:59
260 Blonde MILF Adele Cheating Her Hubby - ob-adele-01.jpg (68k) 20 files 2 MB "Blonde.nzb" Alicia 2011/07/15 00:59
259 Plump Older Lady Loves Fresh Hardon Meat - ob-olivia-03.jpg (74k) 40 files 5 MB "Plump.nzb" Alicia 2011/07/11 01:00
258 Older Mom Fucked By The Young Lover - ob-iren-01.jpg (60k) 20 files 2 MB "Older.nzb" Alicia 2011/07/09 01:00
257 Sweet sexy MILF relaxing in the bathroom (40347-01.jpg - 105k) 20 files 3 MB "Sweet.nzb" MarcoS 2011/06/20 23:00
256 Old Lady Waking Up Her Heighbor By BJ - ob-eva-01.jpg (58k) 20 files 2 MB "Old.nzb" Alicia 2011/07/07 01:00
255 Older MILF plays with her soaking wet twat (40334-01.jpg - 91k) 40 files 3 MB "Older.nzb" MarcoS 2011/05/25 00:11
254 Plump MILF shows her flappy pussy lips (40331-02.jpg - 132k) 20 files 33 KB "Plump.nzb" MarcoS 2011/05/19 00:11
253 Nasty old wife having fun with her sons friend [96k] - fn20d01.jpg 15 files 25 KB "Nasty.nzb" jill xander 2010/12/23 23:44
252 Young boy fucked an older lady at her place [85k] - fn19l01.jpg 15 files 25 KB "Young.nzb" jill xander 2010/12/07 06:23
251 Watch my best friend fucks my old aunt [116k] - fn19o01.jpg 15 files 25 KB "Watch.nzb" jill xander 2010/12/13 17:34
250 My mom fucks with my friend and I am jealouse [90k] - fn19j01.jpg 15 files 24 KB "mom.nzb" jill xander 2010/12/03 06:23
249 My old mom caught my best friend jerking off [57k] - fn19n01.jpg 60 files 101 KB "old.nzb" jill xander 2010/12/11 17:34
248 Old moms pussy is still wet and ready for big dick [81k] - fn19i01.jpg 30 files 50 KB "Old.nzb" jill xander 2010/12/01 06:23
247 My nasty old mom riding on my best friends dick [101k] - fn19c01.jpg 15 files 25 KB "nasty.nzb" jill xander 2010/11/19 13:00
246 My older mom is so hungry of pure hardcore sex [111k] - fn19f01.jpg 30 files 49 KB "older.nzb" jill xander 2010/11/25 06:23
245 Playful Old Mom Fucked By 2 Young Neighbors - ob-zuke-01.jpg (70k) 16 files 27 KB "Playful.nzb" Alicia 2010/11/25 00:00
244 I knew my old mom was fucking with my friend [100k] - fn19e01.jpg 15 files 26 KB "knew.nzb" jill xander 2010/11/23 13:00
243 My friend screwing my older moms hairy pussy [83k] - fn19d01.jpg 15 files 25 KB "friend.nzb" jill xander 2010/11/21 13:00
242 Nasty Granny Sucking The Strangers Dick - ob-aber-01.jpg (66k) 15 files 24 KB "Nasty.nzb" Alicia 2010/11/07 01:00
241 Granny Having Fun With Young Neighbour - ob-bene-01.jpg (69k) 45 files 74 KB "Granny.nzb" Alicia 2010/11/13 00:00
240 Older Slut Fucks With The Young Neighbour - ob-inke-01.jpg (74k) 15 files 25 KB "Older.nzb" Alicia 2010/11/09 00:00
239 2 Guys Having Fun With The Big Old Granny - ob-hort-01.jpg (114k) 15 files 25 KB "Guys.nzb" Alicia 2010/11/03 02:00
238 Slutty Old Mom Fucks With The Young Lover - ob-mommy-01.jpg (71k) 20 files 32 KB "Slutty.nzb" Alicia 2010/10/03 00:04
237 Older Teacher Cant Say No To Her Pupils | LOB01.JPG | 72k | 20 files 33 KB "Older.nzb" Mimizza 2010/10/02 18:04
236 Mature Mom Have To Suck Their Young Dicks | SOV01.JPG | 70k | 20 files 33 KB "Mature.nzb" Mimizza 2010/09/23 18:04
235 The Guy Really Loves The Grey Ladys Pussies - ob-grey-01.jpg (76k) 20 files 32 KB "The.nzb" Alicia 2010/09/26 00:04
234 Lonely Older Housewife Plays With Pussy Pump - ob-housewife-01.jpg (85k) 20 files 33 KB "Lonely.nzb" Alicia 2010/09/29 00:04
233 Freaky Sex Orgy With 2 Horny Grannies - ob-orgy-01.jpg (79k) 20 files 31 KB "Freaky.nzb" Alicia 2010/09/20 00:03
232 Romantic Dinner For The Older Blonde Mom - ob-dinner-01.jpg (85k) 20 files 33 KB "Romantic.nzb" Alicia 2010/09/22 00:04
231 Redhead MILF Comes To Wake Young Nephew | VER01.JPG | 72k | 20 files 33 KB "Redhead.nzb" Mimizza 2010/09/13 18:03
230 Young Doctor Working On Old Grannys Pussy - ob-clinic-01.jpg (96k) 35 files 59 KB "Young.nzb" Alicia 2010/09/16 00:03
229 Young Guy Fucked His Own Older Aunt | PTI01.JPG | 73k | 20 files 31 KB "Young.nzb" Mimizza 2010/09/15 18:03
228 Older mom looking for some explicit fun tonight - is25a01.jpg 31 files 52 KB "Older.nzb" jill xander 2010/09/12 07:03
227 2 Guys fucks the granny with big beautiful tits - is24f01.jpg 16 files 26 KB "Guys.nzb" jill xander 2010/09/07 08:00
226 Plump Granny Fucked By The Young Stud - ob-bed-01.jpg (71k) 40 files 67 KB "Plump.nzb" Alicia 2010/09/09 01:00
225 Job Audition Turned Nasty Sex For Older Mommy - ob-job-01.jpg (69k) 20 files 32 KB "Job.nzb" Alicia 2010/09/01 01:00
224 Old and very nasty female teacher wants more - is24e01.jpg 79 files 132 KB "Old.nzb" jill xander 2010/09/03 08:00
223 2 Men Testing The Pussy Pump On Old Lady - ob-pump-01.jpg (117k) 20 files 33 KB "Men.nzb" Alicia 2010/09/03 01:00
222 Granny meets the young guy at local McDonalds - is24b03.jpg 32 files 54 KB "Granny.nzb" jill xander 2010/08/27 08:00
221 Young stud fucks with the granny in the locker boost - is23e01.jpg 32 files 55 KB "Young.nzb" jill xander 2010/08/17 08:00
220 Boy prefers hot grannies to usual teen girls - is24a01.jpg 16 files 26 KB "Boy.nzb" jill xander 2010/08/25 08:00
219 Fat mature lady looking for horny young lover - is23g01.jpg 16 files 27 KB "Fat.nzb" jill xander 2010/08/21 08:00
218 Busty mature slut fucked by 2 horny studs - is23h01.jpg 16 files 27 KB "Busty.nzb" jill xander 2010/08/23 08:00
217 Hot granny found the young fuck buddy in Prague - is23f01.jpg 16 files 27 KB "Hot.nzb" jill xander 2010/08/19 08:00
216 Lovely Older MILF Fucked By The Stranger - ob-ri-02.jpg (76k) 20 files 34 KB "Lovely.nzb" Alicia 2010/08/03 01:00
215 2 Sex Hungry Grannies Got a Private Orgy - ob-wik-01.jpg (80k) 20 files 33 KB "Sex.nzb" Alicia 2010/07/29 01:00
214 2 Guys Having Fun With The Big Beautiful MILF - ob-o-01.jpg (97k) 20 files 33 KB "Guys.nzb" Alicia 2010/08/01 01:00
213 Granny Hunter Working On Fat Older Lady Pussy - ob-jizz-04.jpg (59k) 60 files 99 KB "Granny.nzb" Alicia 2010/07/19 01:00
212 Guy Working On Older Moms Ass and Pussy - ob-roi-01.jpg (70k) 20 files 34 KB "Guy.nzb" Alicia 2010/07/17 01:00
211 Muscle Stud Working On Old Hairy Pussy - ob-cris-01.jpg (74k) 36 files 60 KB "Muscle.nzb" Alicia 2010/07/09 01:00
210 2 Studs Fucked The Older MILF and Filmed It - ob-ys-01.jpg (93k) 16 files 25 KB "Studs.nzb" Alicia 2010/07/01 01:00
209 Horny Old Granny Fucks With The Doctor - ob-be-01.jpg (85k) 60 files 98 KB "Horny.nzb" Alicia 2010/06/29 01:00
208 Plump and Busty MILF Fucked By Her Hubby Friend - ob-ro-01.jpg (58k) 20 files 31 KB "Plump.nzb" Alicia 2010/06/25 01:00
207 2 Older Ladies Got a Really Wild Orgy at Kitchen - ob-fis-01.jpg (81k) 80 files 134 KB "Older.nzb" Alicia 2010/06/21 01:00
206 Nasty Old Lady Fucks With The Neighbor in Garage - ob-noe-01.jpg (75k) 60 files 99 KB "Nasty.nzb" Alicia 2010/06/23 01:00
205 Lad caught at jerking off by his friends old mom [82k] - fn18h01.jpg 15 files 24 KB "Lad.nzb" jill xander 2010/05/03 14:00
204 Hot mature mom gives up to her sons friend [86k] - fn17b01.jpg 15 files 23 KB "Hot.nzb" jill xander 2010/04/03 14:00
203 Nasty older lady fucks with her sons best friend [79k] - fn16g01.jpg 15 files 24 KB "Nasty.nzb" jill xander 2010/03/25 15:00
202 Really beautiful MILF got such a tasty pussy (40243-01.jpg - 126k) 20 files 31 KB "Really.nzb" MarcoS 2010/03/23 00:00
201 Older mom fucks with her sons best friend [82k] - fn16d01.jpg 105 files 165 KB "Older.nzb" jill xander 2010/03/19 15:00
200 Dirty older mom working on big young dick [87k] - fn16c01.jpg 15 files 24 KB "Dirty.nzb" jill xander 2010/03/15 15:00
199 Horny old mom fucks with her sons friend [103k] - fn15e01.jpg 30 files 47 KB "Horny.nzb" jill xander 2010/03/03 13:00
198 Big older mom have fun with her sons friend [143k] - fn15h01.jpg 30 files 47 KB "Big.nzb" jill xander 2010/03/09 13:00
197 Busty old lady relaxing in bed with her sons coed [87k] - fn15f01.jpg 45 files 71 KB "Busty.nzb" jill xander 2010/03/05 13:00
196 Young lad fucked his best friends older mom [120k] - fn15g01.jpg 75 files 119 KB "Young.nzb" jill xander 2010/03/07 13:00
195 Latina MILF spreading legs to show her wanting pussy (40238-01.jpg - 123k) 20 files 32 KB "Latina.nzb" MarcoS 2010/02/24 22:00
194 Babyface MILF is not so innocent as she looks like (40231-01.jpg - 159k) 20 files 31 KB "Babyface.nzb" MarcoS 2010/02/10 22:00
193 Hairy Old Pussy In So Hungry For Young Cum - ob-ligs-01.jpg (118k) 16 files 25 KB "Hairy.nzb" Alicia 2010/02/07 00:00
192 Usual MILF posing around nude and exposing her twat (40229-01.jpg - 131k) 20 files 31 KB "Usual.nzb" MarcoS 2010/02/06 22:00
191 Granny Wants 2 Dicks Inside Her Hairy Pussy - ob-yaka-06.jpg (83k) 16 files 26 KB "Granny.nzb" Alicia 2010/01/31 00:01
190 Slutty MILF got a big boobs and the tasty pink pussy (40226-01.jpg - 118k) 40 files 62 KB "Slutty.nzb" MarcoS 2010/01/30 22:00
189 Hot Old Lady Cheating Her Husband With 2 Boys - ob-rona-01.jpg (66k) 16 files 25 KB "Hot.nzb" Alicia 2010/01/25 00:00
188 Plump Mature Mom Having Fun With 2 Guys - ob-kral-01.jpg (65k) 16 files 25 KB "Plump.nzb" Alicia 2010/01/27 00:00
187 Horny Older Babe Fucks With 2 Neighbor Guys - ob-vust-01.jpg (127k) 48 files 76 KB "Horny.nzb" Alicia 2010/02/01 00:00
186 Big Beautiful Mom Fooling Around With 2 Boys - ob-zada-01.jpg (99k) 16 files 25 KB "Big.nzb" Alicia 2010/01/11 00:00
185 Really Old Granny Still Wants Some Raw Sex - ob-osha-01.jpg (133k) 48 files 76 KB "Really.nzb" Alicia 2010/01/19 00:00
184 2 Guys Fucks The Old Granny and Films It All - ob-bref-01.jpg (99k) 16 files 26 KB "Guys.nzb" Alicia 2010/01/17 00:00
183 2 Neighbor Boys Fucked The Mature Housewife - ob-gana-01.jpg (84k) 16 files 25 KB "Neighbor.nzb" Alicia 2010/01/12 23:59
182 Hot MILF with lovely big boobs sitting on big dildo (40217-01.jpg - 104k) 20 files 31 KB "Hot.nzb" MarcoS 2010/01/12 21:59
181 Older Redhead Mom Spreading Legs For 2 Guys - ob-onka-01.jpg (130k) 16 files 24 KB "Older.nzb" Alicia 2010/01/03 00:00
180 Playful Older Lady Relaxing With 2 Lovers - ob-doti-01.jpg (131k) 16 files 25 KB "Playful.nzb" Alicia 2010/01/01 00:00
179 Lovely Older Mom Fucks Like a Hungry She-lion - ob-pipa-01.jpg (70k) 16 files 25 KB "Lovely.nzb" Alicia 2009/12/29 00:00
178 2 Boys Working On Neighbor Moms Older Pussy - ob-lola-01.jpg (113k) 48 files 76 KB "Boys.nzb" Alicia 2009/12/27 00:00
177 Horny Old Lady Having Fun With 2 Young Lovers - ob-wria-01.jpg (147k) 32 files 3 MB "Horny.nzb" Alicia 2009/12/15 00:00
176 2 Young Guys Fucked The Older Granny Pussy - ob-clos-01.jpg (62k) 32 files 50 KB "Young.nzb" Alicia 2009/12/17 00:00
175 Mature mom having fun with her young neighbor [100k] - fn14g01.jpg 15 files 2 MB "Mature.nzb" jill xander 2009/12/07 13:00
174 Hot older lady fucked as regard for good work - is23d01.jpg 15 files 2 MB "Hot.nzb" jill xander 2009/11/29 07:00
173 Mom spreading legs for her sons best friend [92k] - fn13i01.jpg 15 files 2 MB "Mom.nzb" jill xander 2009/11/23 13:00
172 Usual older housewife on her first homemade video - is22c01.jpg 15 files 2 MB "Usual.nzb" jill xander 2009/11/11 07:00
171 Nasty Older Wife Cheating With The Neighbor - ob-jeni-01.jpg (72k) 20 files 2 MB "Nasty.nzb" Alicia 2009/11/11 00:00
170 Plump old mom fucks with her sons friends [88k] - fn13e01.jpg 15 files 2 MB "Plump.nzb" jill xander 2009/11/15 13:00
169 See my best friend fucks my granny pussy [85k] - fn13a01.jpg 30 files 4 MB "See.nzb" jill xander 2009/11/07 13:00
168 Redhead MILF fucks with her sons best friend [106k] - fn13b01.jpg 15 files 2 MB "Redhead.nzb" jill xander 2009/11/09 13:00
167 Nasty older mommy fucks with the neighbor boy - is22b01.jpg 15 files 3 MB "Nasty.nzb" jill xander 2009/11/09 07:00
166 Horny guy cant resist to fuck his friends mom [92k] - fn13d01.jpg 60 files 8 MB "Horny.nzb" jill xander 2009/11/13 13:00
165 Young guy fucks the hairy old grannys pussy - is22d01.jpg 60 files 8 MB "Young.nzb" jill xander 2009/11/13 07:00
164 Mature Housewife Fucked Right At The Hotel WC - ob-desa-01.jpg (56k) 40 files 3 MB "Mature.nzb" Alicia 2009/11/03 00:00
163 Older Lesbian Plays With The Cute Neighbor Girl - ob-cres-01.jpg (59k) 40 files 4 MB "Older.nzb" Alicia 2009/10/25 02:00
162 Lustful older mom cheating with young boy - is20h01.jpg 15 files 2 MB "Lustful.nzb" jill xander 2009/10/19 08:00
161 Dirty older babe spreading legs for young lover - is21a01.jpg 30 files 4 MB "Dirty.nzb" jill xander 2009/10/21 08:00
160 Older lady having fun with young stud - is20f01.jpg 150 files 20 MB "Older.nzb" jill xander 2009/10/15 08:00
159 2 Guys Pumping Up The Grannys Pussy To Fuck It - ob-suna-01.jpg (117k) 40 files 4 MB "Guys.nzb" Alicia 2009/10/13 01:00
158 Big Old Momma Wants a Big Dick Inside Her Twat - ob-kars-01.jpg (72k) 20 files 2 MB "Big.nzb" Alicia 2009/10/11 01:00
157 Redhead Granny Fucked By The Young Lad - ob-aren-01.jpg (86k) 20 files 2 MB "Redhead.nzb" Alicia 2009/10/07 00:59
156 Horny Old Mom Really Loves The Anal Sex - ob-lein-01.jpg (78k) 40 files 4 MB "Horny.nzb" Alicia 2009/10/05 00:59
155 btn26201.jpg - Cute Old Mom Doing Her Tender Pussy [94k] 500 files 60 MB ".nzb" Vikta 2009/09/26 11:00
154 Busty Old Mom Plays With Her Young Lovers Dick - ob-frei-01.jpg (75k) 40 files 4 MB "Busty.nzb" Alicia 2009/09/29 00:59
153 Granny Fucked By The Hot Muscle Guy - ob-gubi-01.jpg (74k) 20 files 2 MB "Granny.nzb" Alicia 2009/10/01 01:00
152 Drunk older mom used by the horny lad [92k] - fn12e01.jpg 15 files 2 MB "Drunk.nzb" jill xander 2009/09/25 14:00
151 Hot older mom got a quickie with her sons friend [118k] - fn12f01.jpg 60 files 8 MB "Hot.nzb" jill xander 2009/09/27 13:59
150 Slutty old mom gives up to the sons best friend [89k] - fn12c01.jpg 15 files 2 MB "Slutty.nzb" jill xander 2009/09/21 14:00
149 Busty old mom spreading legs for young lad [105k] - fn11d01.jpg 46 files 7 MB "Busty.nzb" jill xander 2009/09/11 14:00
148 Older mom fucks with her sons best friend [107k] - fn09e01.jpg 89 files 11 MB "Older.nzb" jill xander 2009/08/19 14:00
147 Young lad fucked the hot older housewife [79k] - fn09c01.jpg 60 files 8 MB "Young.nzb" jill xander 2009/08/15 14:00
146 Dirty old mom fucks with her sons coed [71k] - fn09b01.jpg 15 files 2 MB "Dirty.nzb" jill xander 2009/07/03 14:00
145 Hairy old mom fucks with her sons best friend [80k] - fn08h01.jpg 15 files 2 MB "Hairy.nzb" jill xander 2009/06/29 14:00
144 Horny stud fucking his best friends moms pussy [120k] - fn08f01.jpg 15 files 2 MB "Horny.nzb" jill xander 2009/06/25 14:00
143 Boy fucks his best friends mom and cums on her [87k] - fn08d01.jpg 15 files 2 MB "Boy.nzb" jill xander 2009/06/21 13:59
142 Guy doesnt know that mom fucks with his friend [97k] - fn08a01.jpg 30 files 4 MB "Guy.nzb" jill xander 2009/06/15 14:00
141 2 Guys Pumping Up Old Twat To Fuck It - ob-pump-01.jpg (117k) 60 files 7 MB "Guys.nzb" Alicia 2009/06/11 01:00
140 Cute MILF caught her sons best friend jerking off [82k] - fn07f01.jpg 45 files 6 MB "Cute.nzb" jill xander 2009/06/09 14:00
139 Older mom fucks with her sons friend after tea [104k] - fn07e01.jpg 60 files 8 MB "Older.nzb" jill xander 2009/06/07 14:00
138 Dirty Bored Mom Cheating With Latin Worker - ob-fosa-01.jpg (92k) 20 files 2 MB "Dirty.nzb" Alicia 2009/06/05 01:00
137 Petite MILF cant resist to fuck her sons friend [83k] - fn07c01.jpg 15 files 2 MB "Petite.nzb" jill xander 2009/06/03 14:00
136 Shaggy MILF spreading legs for her sons friend [111k] - fn07b01.jpg 15 files 2 MB "Shaggy.nzb" jill xander 2009/06/01 14:00
135 Nasty Granny Fucked Right At The Workplace - ob-lami-01.jpg (71k) 60 files 6 MB "Nasty.nzb" Alicia 2009/06/01 01:00
134 2 Old Ladies Shares One Young Creamy Dick - ob-trio-01.jpg (60k) 60 files 6 MB "Old.nzb" Alicia 2009/05/25 01:00
133 Busty old mom fucked by the young student [64k] - fn06f01.jpg 15 files 2 MB "Busty.nzb" jill xander 2009/05/23 14:00
132 Nasty older mom fucks with her sons coed [106k] - fn06e01.jpg 15 files 2 MB "Nasty.nzb" jill xander 2009/05/21 14:00
131 Horny latina MILF spreading legs and doing her pussy (40158-01.jpg - 110k) 20 files 3 MB "Horny.nzb" MarcoS 2009/05/20 23:00
130 Old mom cant resist to suck her sons friends dick [85k] - fn06d01.jpg 30 files 3 MB "Old.nzb" jill xander 2009/05/19 14:00
129 Man Fucking The Grandmas Hairy Pussy - ob-cell-01.jpg (62k) 60 files 6 MB "Man.nzb" Alicia 2009/05/19 01:00
128 Amateur mom getting nude at her first porn casting (40157-01.jpg - 99k) 20 files 3 MB "Amateur.nzb" MarcoS 2009/05/18 23:00
127 Sweet blonde MILF wears pantyhose and no panties (40156-01.jpg - 77k) 20 files 3 MB "Sweet.nzb" MarcoS 2009/05/16 23:00
126 Young stud fucked his friends older mom [114k] - fn06b01.jpg 45 files 6 MB "Young.nzb" jill xander 2009/05/15 14:00
125 Dirty old mom caught her sons best friend naked [89k] - fn06a01.jpg 15 files 2 MB "Dirty.nzb" jill xander 2009/05/13 14:00
124 Fat Granny Turns Sex Hungry Slut Sometimes - ob-heim-01.jpg (83k) 60 files 6 MB "Fat.nzb" Alicia 2009/05/13 01:00
123 2 Older Couples Got A Private Swinger Party - ob-orgy-01.jpg (68k) 60 files 6 MB "Older.nzb" Alicia 2009/05/11 01:00
122 Redhead mom fucks with her sons best friend [147k] - fn05f01.jpg 15 files 3 MB "Redhead.nzb" jill xander 2009/05/09 14:00
121 Horny MILF Uses Pump To Enlarge Her Pussy - ob-brea-01.jpg (85k) 40 files 4 MB "Horny.nzb" Alicia 2009/05/09 01:00
120 Slutty Blonde MILF Fucks With The Neighbor - ob-lien-01.jpg (72k) 20 files 2 MB "Slutty.nzb" Alicia 2009/05/07 01:00
119 This lovely MILF got a pussy I would love to taste (40151-01.jpg - 105k) 20 files 2 MB "This.nzb" MarcoS 2009/05/06 23:00
118 Older mom relaxing with her sons best friend [77k] - fn05d01.jpg 30 files 4 MB "Older.nzb" jill xander 2009/05/05 14:00
117 Busty Old Slut Gives Up To The Neighbor - ob-jenn-01.jpg (58k) 40 files 4 MB "Busty.nzb" Alicia 2009/05/05 01:00
116 Granny Fucked For The Homemade Porn Video - ob-grip-01.jpg (52k) 40 files 3 MB "Granny.nzb" Alicia 2009/05/03 00:59
115 Hot redhead MILF still in very good shape and proves it (40148-02.jpg - 92k) 80 files 12 MB "Hot.nzb" MarcoS 2009/04/28 23:00
114 Cute blonde MILF shows her smooth and tasty pussy (40147-01.jpg - 98k) 40 files 6 MB "Cute.nzb" MarcoS 2009/04/24 23:00
113 Luxury mature wife home alone and wants to play (40146-01.jpg - 119k) 20 files 3 MB "Luxury.nzb" MarcoS 2009/04/22 23:00
112 Busty latina MILF sitting upon the huge dildo (40143-01.jpg - 104k) 40 files 6 MB "Busty.nzb" MarcoS 2009/04/16 23:00
111 Older lady spreading her legs and shows wet pussy (40142-01.jpg - 118k) 20 files 3 MB "Older.nzb" MarcoS 2009/04/14 23:00
110 Beautiful older babe plays with her shaved pussy (40141-01.jpg - 83k) 40 files 5 MB "Beautiful.nzb" MarcoS 2009/04/12 23:00
109 Two Granny Hunters Working On Older Pussy - ob-cary-01.jpg (81k) 50 files 5 MB "Two.nzb" Alicia 2009/04/09 01:00
108 Dirty Mature Lady Fucks With The Gangster - ob-ruya-01.jpg (50k) 20 files 2 MB "Dirty.nzb" Alicia 2009/04/01 01:00
107 Nasty Mature Babe Having Fun With Young Girl - ob-bron-01.jpg (59k) 20 files 2 MB "Nasty.nzb" Alicia 2009/03/31 01:00
106 Man Pumping Up The Mature Moms Hairy Twat - ob-zoye-01.jpg (53k) 45 files 4 MB "Man.nzb" Alicia 2009/03/29 01:00
105 Another Trick From The Famous Granny Hunters - ob-tori-01.jpg (71k) 25 files 2 MB "Another.nzb" Alicia 2009/03/25 02:00
104 All Dirty Granny Holes Explored And Fucked - ob-brie-01.jpg (58k) 25 files 2 MB "All.nzb" Alicia 2009/03/21 02:00
103 Plump Old Housewife Fucked By Tatooed Guy - ob-sara-01.jpg (65k) 35 files 4 MB "Plump.nzb" Alicia 2009/03/19 02:00
102 Curly Old Housewife Sucking Dick At Backyard - ob-home-01.jpg (60k) 20 files 2 MB "Curly.nzb" Alicia 2009/03/17 02:00
101 Big Mature Lady Fucked By 2 Horny Males - ob-bigg-01.jpg (53k) 50 files 5 MB "Big.nzb" Alicia 2009/03/11 02:00
100 Redhead old mom have fun with young lover [108k] - fn05b01.jpg 15 files 2 MB "Redhead.nzb" jill xander 2009/03/09 15:00
99 Two Grannies Fucked By The 10 Horny Males - ob-orgy-01.jpg (69k) 20 files 2 MB "Two.nzb" Alicia 2009/03/09 02:00
98 Slutty Older Wife Cheating With The Bald Man - ob-loya-01.jpg (69k) 25 files 2 MB "Slutty.nzb" Alicia 2009/03/07 00:00
97 Horny Old Wife Cheating With The Neighbor - ob-dope-01.jpg (55k) 25 files 2 MB "Horny.nzb" Alicia 2009/03/05 00:00
96 Nasty older mom wants some fresh cum on breakfast [114k] - fn04f01.jpg 15 files 2 MB "Nasty.nzb" jill xander 2009/03/03 13:00
95 Horny older babe fucks with the young lover [111k] - fn04d01.jpg 30 files 5 MB "Horny.nzb" jill xander 2009/02/27 13:00
94 Older Slut Fucks With Co-worker At The WC - ob-hunt-01.jpg (56k) 20 files 2 MB "Older.nzb" Alicia 2009/02/27 00:00
93 Old Couple Fucking At The Spring Field - ob-dara-01.jpg (66k) 25 files 2 MB "Old.nzb" Alicia 2009/02/25 00:00
92 Older mom fooling around with her sons best friend [65k] - fn04b01.jpg 45 files 5 MB "Older.nzb" jill xander 2009/02/23 13:00
91 Granny Fucked After Annual Gyno Exam - ob-past-01.jpg (85k) 55 files 6 MB "Granny.nzb" Alicia 2009/02/23 00:00
90 Big older mom relaxing with the young lad [104k] - fn04a01.jpg 30 files 4 MB "Big.nzb" jill xander 2009/02/21 13:00
89 Fat Old Babe Fucked By The Stranger - ob-mara-01.jpg (80k) 40 files 4 MB "Fat.nzb" Alicia 2009/02/21 00:00
88 Big Granny Meets The Old Friend At The Port - ob-judy-01.jpg (74k) 80 files 8 MB "Big.nzb" Alicia 2009/02/19 00:00
87 Sporty older mom having fun with young lover [106k] - fn03f01.jpg 30 files 4 MB "Sporty.nzb" jill xander 2009/02/17 13:00
86 Lovely blonde MILF gives up to the horny boy [86k] - fn03e01.jpg 30 files 4 MB "Lovely.nzb" jill xander 2009/02/15 13:00
85 Nasty Older Babe Got A Passion For Black Dicks - ob-sati-01.jpg (56k) 40 files 3 MB "Nasty.nzb" Alicia 2009/02/13 00:00
84 Dirty old mom sleeps with the sons best friend [100k] - fn03c01.jpg 60 files 7 MB "Dirty.nzb" jill xander 2009/02/11 13:00
83 Busty old mom fucks with the sons friends [120k] - fn03a01.jpg 30 files 5 MB "Busty.nzb" jill xander 2009/02/07 13:00
82 Fat Older Wife Discovers She Is Still Attractive - ob-stay-01.jpg (54k) 130 files 13 MB "Fat.nzb" Alicia 2009/02/05 00:00
81 Older mom having fun with her sons best friend [87k] - fn02f01.jpg 60 files 7 MB "Older.nzb" jill xander 2009/02/03 13:00
80 Hot MILF relaxing with the young lad [75k] - fn02e01.jpg 30 files 5 MB "Hot.nzb" jill xander 2009/02/01 13:00
79 Dirty Older Housewife Fucks With The Neighbor - ob-flor-01.jpg (60k) 140 files 15 MB "Dirty.nzb" Alicia 2009/02/01 00:00
78 Horny MILF Fucks With The Fitness Coach - ob-prud-01.jpg (69k) 140 files 13 MB "Horny.nzb" Alicia 2009/01/31 00:00
77 Granny Fucked By The Handsome Old Friend - ob-amin-01.jpg (76k) 130 files 13 MB "Granny.nzb" Alicia 2009/01/27 00:00
76 Busty Older Wife Cheating Her Hubby At WC - ob-kati-01.jpg (80k) 60 files 7 MB "Busty.nzb" Alicia 2009/01/25 00:00
75 Older Lovers Fucks At The Cheap Hotel - ob-legs-01.jpg (53k) 100 files 14 MB "Older.nzb" Alicia 2009/01/23 00:00
74 Two Old Couples Got The Swinging Party - ob-grot-01.jpg (80k) 50 files 5 MB "Two.nzb" Alicia 2009/01/21 00:00
73 Nasty older mom fucks with young lover - is20d06.jpg 30 files 5 MB "Nasty.nzb" jill xander 2009/01/19 07:04
72 Big older mom shows her hairy twat - is20b01.jpg 30 files 5 MB "Big.nzb" jill xander 2009/01/15 07:00
71 Old teacher fucks with her ex student - is20a01.jpg 30 files 4 MB "Old.nzb" jill xander 2009/01/13 07:00
70 Old Housewife Is Hungry For Some Raw Sex - ob-fler-01.jpg (57k) 60 files 6 MB "Old.nzb" Alicia 2009/01/11 00:00
69 Big Plump Granny On Two Smelly Dicks - ob-yarm-01.jpg (78k) 60 files 6 MB "Big.nzb" Alicia 2009/01/07 00:00
68 Older mom got a date at the lone forest - is19e01.jpg 90 files 15 MB "Older.nzb" jill xander 2009/01/03 07:00
67 Granny Fucked By the Horny Gynecologyst - ob-dila-01.jpg (85k) 120 files 13 MB "Granny.nzb" Alicia 2009/01/03 00:00
66 Birthday Present For the Horny Old Granny - ob-wish-01.jpg (64k) 60 files 6 MB "Birthday.nzb" Alicia 2009/01/01 00:00
65 Man Fucking His Horny Older Neighbor - ob-kral-01.jpg (76k) 60 files 6 MB "Man.nzb" Alicia 2008/12/31 00:00
64 Beautiful older mom pretends a cheerleader - is19c01.jpg 30 files 5 MB "Beautiful.nzb" jill xander 2008/12/29 07:00
63 Horny Older Mom Got Quickie at the WC - ob-cupi-01.jpg (63k) 40 files 3 MB "Horny.nzb" Alicia 2008/12/29 00:00
62 Busty granny fucked outdoor - is19b01.jpg 30 files 6 MB "Busty.nzb" jill xander 2008/12/27 07:00
61 Older Wufe Cheating With The Neighbour - ob-wife-01.jpg (51k) 60 files 5 MB "Older.nzb" Alicia 2008/12/27 00:00
60 Boy Fucks the Dirty Old Mom in the Mud - ob-clay-01.jpg (91k) 60 files 8 MB "Boy.nzb" Alicia 2008/12/23 00:00
59 Nasty older mom have fun with young lover - is18h01.jpg 30 files 5 MB "Nasty.nzb" jill xander 2008/12/21 07:00
58 Playful Older Lady Wanna Have Some Fun - ob-jema-01.jpg (88k) 60 files 6 MB "Playful.nzb" Alicia 2008/12/19 00:00
57 Big and horny old mom fucked outdoor - is18f01.jpg 30 files 6 MB "Big.nzb" jill xander 2008/12/17 07:00
56 Two Older Girlfriends Shares One Dick - ob-tati-01.jpg (81k) 60 files 6 MB "Two.nzb" Alicia 2008/12/15 00:00
55 Bored housewife looking for some erotic fun - is18d01.jpg 30 files 4 MB "Bored.nzb" jill xander 2008/12/13 07:00
54 Granny Hunters Are Looking For New Victim - ob-pion-01.jpg (88k) 120 files 13 MB "Granny.nzb" Alicia 2008/12/11 00:00
53 Man Picked Up and Older and Horny Granny - ob-ilka-01.jpg (80k) 160 files 16 MB "Man.nzb" Alicia 2008/12/09 00:00
52 Nasty Old Mom and Daughter Shares Dick - ob-blop-01.jpg (56k) 116 files 11 MB "Nasty.nzb" Alicia 2008/12/07 00:00
51 Dirty mom have fun with her sons best friend [107k] - fn01f01.jpg 90 files 11 MB "Dirty.nzb" jill xander 2008/12/05 13:00
50 Young Couple Have Fun With an Old Mom - ob-hist-01.jpg (79k) 60 files 6 MB "Young.nzb" Alicia 2008/12/03 00:00
49 Granny Hunters Fucks the Big Old Lady - ob-zein-01.jpg (80k) 30 files 3 MB "Granny.nzb" Alicia 2008/12/01 00:00
48 Shy plump housewife spreading legs - DSC61801.jpg () 16 files 2 MB "Shy.nzb" older fan 2008/11/30 22:00
47 Busty older plumper nude in her room - DSC61701.jpg () 8 files 1 MB "Busty.nzb" older fan 2008/11/28 22:00
46 Really fat older babe got real horny - DSC61601.jpg () 10 files 2 MB "Really.nzb" older fan 2008/11/26 22:00
45 Big and busty MILF exposing her pussy - DSC61501.jpg () 16 files 2 MB "Big.nzb" older fan 2008/11/24 22:00
44 Older MILF fucks with her sons best friend [87k] - fn01a01.jpg 180 files 22 MB "Older.nzb" jill xander 2008/11/23 13:00
43 Boys licks an older tits and pussy - is17c01.jpg 178 files 22 MB "Boys.nzb" jill xander 2008/11/23 07:00
42 Mature babe fucked in the sauna - is17b01.jpg 30 files 4 MB "Mature.nzb" jill xander 2008/11/21 07:00
41 Beautiful older plumper uses glass dildo - DSC61301.jpg () 16 files 2 MB "Beautiful.nzb" older fan 2008/11/20 22:00
40 Horny older babe in hardcore action - is17a01.jpg 45 files 6 MB "Horny.nzb" jill xander 2008/11/19 07:00
39 Slutty older wife caught cheating - is16h01.jpg 15 files 3 MB "Slutty.nzb" jill xander 2008/11/17 07:00
38 Plump older babe fucked by her sons coed [105k] - fm99d01.jpg 15 files 2 MB "Plump.nzb" jill xander 2008/11/15 13:00
37 Granny riding on the young dick - is16d01.jpg 15 files 3 MB "Granny.nzb" jill xander 2008/11/09 07:00
36 Hot MILF fucks with her sons best friend [112k] - fm98g03.jpg 20 files 3 MB "Hot.nzb" jill xander 2008/11/07 13:00
35 Fucking an older mom on the field - is16c01.jpg 15 files 3 MB "Fucking.nzb" jill xander 2008/11/07 07:00
34 Horny Granny In Dirty Hardcore Scene - ob-jizz-01.jpg (62k) 60 files 6 MB "Horny.nzb" Alicia 2008/11/01 02:00
33 Really fat mature babe posing nude - DSC60207.jpg () 48 files 7 MB "Really.nzb" older fan 2008/10/31 00:01
32 Old mom caught masturbating by her sons friend [76k] - fm98e02.jpg 15 files 2 MB "Old.nzb" jill xander 2008/10/27 15:00
31 Beautiful plump mom nude in her bed - DSC60002.jpg () 16 files 2 MB "Beautiful.nzb" older fan 2008/10/27 00:00
30 Pumping up an older moms pussy - is15f05.jpg 15 files 2 MB "Pumping.nzb" jill xander 2008/10/25 08:00
29 Older plumper plays with vibrator - DSC59901.jpg () 16 files 2 MB "Older.nzb" older fan 2008/10/24 23:00
28 btm13605.jpg - Cute and Slutty MILF Using The Big Dildo [93k] 388 files 47 MB ".nzb" Vikta 2008/10/24 11:00
27 Redhead MILF relaxing with her sons best friend [125k] - fm98c02.jpg 15 files 2 MB "Redhead.nzb" jill xander 2008/10/23 14:00
26 Mature babe cheating with boy - is15e01.jpg 60 files 9 MB "Mature.nzb" jill xander 2008/10/23 08:00
25 Older Lady Fucks With the New Lover - ob-goia-03.jpg (94k) 60 files 7 MB "Older.nzb" Alicia 2008/10/23 01:00
24 Plump mature babe shows her pussy - DSC59805.jpg () 64 files 9 MB "Plump.nzb" older fan 2008/10/22 23:00
23 Boy fucks a horny older babe - is15d01.jpg 45 files 8 MB "Boy.nzb" jill xander 2008/10/21 08:00
22 Plump Mature Wife Spreading Her Legs For Dick - ob-leya-01.jpg (72k) 40 files 4 MB "Plump.nzb" Alicia 2008/10/21 01:00
21 Beautiful older mom fucks with her sons friend [100k] - fm97f01.jpg 15 files 2 MB "Beautiful.nzb" jill xander 2008/10/17 14:00
20 Busty Old Wife Cheating With Young Lover - ob-miko-01.jpg (129k) 30 files 5 MB "Busty.nzb" Alicia 2008/10/15 01:00
19 Two Mature Wives Abused and Gangbanged - ob-gang-14.jpg (60k) 100 files 9 MB "Two.nzb" Alicia 2008/10/13 01:02
18 Nasty Grandma Fucked By Her Family Doctor - ob-drur-02.jpg (80k) 60 files 6 MB "Nasty.nzb" Alicia 2008/10/11 01:00
17 Wet Granny Pussy Pumped And Fucked - ob-beta-01.jpg (117k) 20 files 3 MB "Wet.nzb" Alicia 2008/10/09 01:00
16 Banging The Dirty Old Grannys Pussy - ob-flos-08.jpg (88k) 30 files 3 MB "Banging.nzb" Alicia 2008/10/07 01:00
15 Lustful redhead MILF fucked after sauna - is15a10.jpg 15 files 3 MB "Lustful.nzb" jill xander 2008/10/05 08:01
14 Bald Man Doing The Nasty Older Lady - ob-gosh-04.jpg (47k) 25 files 2 MB "Bald.nzb" Alicia 2008/10/05 01:00
13 Hot Older MILF Plays With Her Lovers Dick - ob-jenn-04.jpg (80k) 45 files 6 MB "Hot.nzb" Alicia 2008/10/03 01:00
12 Old Grannys Pussy Licked and Fucked - ob-plef-02.jpg (65k) 25 files 3 MB "Old.nzb" Alicia 2008/09/29 01:00
11 Busty old mom relaxing with her sons friend [143k] - fm96b01.jpg 14 files 2 MB "Busty.nzb" jill xander 2008/09/25 14:00
10 Dirty old lady plays the nymphomaniac nurse - is14d02.jpg 30 files 5 MB "Dirty.nzb" jill xander 2008/09/25 08:00
9 Big older mom have fun with her sons coed [125k] - fm96c02.jpg 60 files 9 MB "Big.nzb" jill xander 2008/09/27 14:00
8 Horny amateur wife cheating her hubby - is14e13.jpg 105 files 15 MB "Horny.nzb" jill xander 2008/09/27 08:02
7 Man Banging The Horny Grannys Holes - ob-tria-02.jpg (89k) 30 files 3 MB "Man.nzb" Alicia 2008/09/27 01:00
6 Dirty Old Slut Having Sex At the Backyard - ob-zika-01.jpg (112k) 60 files 9 MB "Dirty.nzb" Alicia 2008/09/25 01:00
5 Hot older babe plays the dirty western scene - is14c01.jpg 30 files 4 MB "Hot.nzb" jill xander 2008/09/23 08:00
4 See How Gray Old Lady Fucked Outdoor - ob-yona-01.jpg (58k) 25 files 2 MB "See.nzb" Alicia 2008/09/23 01:00
3 Older mom taking shower with her sons coed [87k] - fm96a01.jpg 170 files 22 MB "Older.nzb" jill xander 2008/09/21 14:00
2 Slutty old mom fucked at the local park - is14b01.jpg 15 files 2 MB "Slutty.nzb" jill xander 2008/09/21 08:00
1 Men Pumping Up The Older MILFs Pussy - ob-supy-03.jpg (71k) 20 files 2 MB "Men.nzb" Alicia 2008/09/21 01:00
First Prev. Next Last Page
of totaling 1 page(s)
  Refresh


  Language: